User: anonymous   Login
Location: Blanot
(47.1713°N, 4.2340°E)
Time: 22:36:48
(UTC+00:00)
Language:

SL-24 DEB - Orbit

View from above orbital plane
View from above orbital plane
View from above satellite
View from above satellite

Ground track
Ground track

The orbit data is extracted from the following two-line orbital elements,

1 36510U 10013C   20263.17531453  .00000256  00000-0  48822-4 0  9993
2 36510  92.0264 145.2518 0026173 127.8456 232.5132 14.63208511557116
Epoch (UTC): 19 September 2020 04:12:27
Eccentricity: 0.0026173
inclination: 92.0264°
perigee height: 664 km
apogee height: 701 km
right ascension of ascending node: 145.2518°
argument of perigee: 127.8456°
revolutions per day: 14.63208511
mean anomaly at epoch: 232.5132°
orbit number at epoch: 55711

The dashed part of the orbit path shows where the satellite is in the earth's shadow,  

DLR